Cairns, Australia

5:51 PM AEST on July 25, 2017 (GMT +1000)
Cairns International

Weather History for YBCS - January, 2014

Change the Weather History Date:

Sunday, January 5, 2014

  Actual Average Record
Temperature  
Mean Temperature 86 °F -  
Max Temperature 90 °F 89 °F 95 °F (2016)
Min Temperature 81 °F 74 °F 71 °F (2012)
Cooling Degree Days 20    
Growing Degree Days 36 (Base 50)    
Moisture  
Dew Point 78 °F    
Average Humidity 77    
Maximum Humidity 89    
Minimum Humidity 61    
Precipitation  
Precipitation 0.01 in 0.53 in - ()
Sea Level Pressure  
Sea Level Pressure 29.69 in    
Wind  
Wind Speed 7 mph ()    
Max Wind Speed 13 mph    
Max Gust Speed -    
Visibility 6.6 miles    
Events      
Averages and records for this station are not official NWS values.
T = Trace of Precipitation, MM = Missing Value Source: Averaged Metar Reports

Daily Weather History Graph

Daily Weather History Graph

Search for Another Location

Airport or City:

Trip Planner

Search our weather history database for the weather conditions in past years. The results will help you decide how hot, cold, wet, or windy it might be!

Date:

Astronomy

Jan. 05, 2014 Rise Set
Actual Time 5:49 AM AEST 6:55 PM AEST
Civil Twilight 5:25 AM AEST 7:18 PM AEST
Nautical Twilight 4:57 AM AEST 7:47 PM AEST
Astronomical Twilight 4:28 AM AEST 8:16 PM AEST
Moon 9:29 AM AEST (1/5) 10:06 PM AEST (1/5)
Length of Visible Light 13h 53m
Length of Day
13h 05m
Waxing Crescent, 18% of the Moon is Illuminated
Jan 5
Waxing Crescent
Jan 8
First Quarter
Jan 16
Full
Jan 24
Last Quarter
Jan 31
New

Hourly Weather History & Observations

Time (AEST) Temp. Heat Index Dew Point Humidity Pressure Visibility Wind Dir Wind Speed Gust Speed Precip Events Conditions
12:00 AM 83 °F - 77 °F 79% 29.69 in - NNW 3.5 mph - -   Overcast
12:00 AM 84.2 °F 94.1 °F 77.0 °F 79% 29.68 in 6.2 mi NNW 3.5 mph - N/A   Scattered Clouds
12:30 AM 82.4 °F 90.9 °F 77.0 °F 84% 29.68 in 6.2 mi North 6.9 mph - N/A   Scattered Clouds
1:00 AM 83 °F - 76 °F 75% 29.68 in - NNW 5.8 mph - -  
1:00 AM 84.2 °F 94.1 °F 77.0 °F 79% 29.65 in 6.2 mi NNW 5.8 mph - N/A   Scattered Clouds
1:30 AM 84.2 °F 94.1 °F 77.0 °F 79% 29.68 in 6.2 mi NNW 5.8 mph - N/A   Mostly Cloudy
2:00 AM 84.2 °F 94.1 °F 77.0 °F 79% 29.65 in 6.2 mi NNW 6.9 mph - N/A   Mostly Cloudy
2:30 AM 82.4 °F 90.9 °F 77.0 °F 84% 29.65 in 6.2 mi NW 6.9 mph - N/A   Mostly Cloudy
3:00 AM 83 °F - 77 °F 78% 29.66 in - NNW 6.9 mph - -   Overcast
3:00 AM 82.4 °F 90.9 °F 77.0 °F 84% 29.65 in 6.2 mi NNW 6.9 mph - N/A   Mostly Cloudy
3:30 AM 82.4 °F 90.9 °F 77.0 °F 84% 29.65 in 6.2 mi North 5.8 mph - N/A   Mostly Cloudy
4:30 AM 82.4 °F 92.4 °F 78.8 °F 89% 29.65 in 6.2 mi NNW 6.9 mph - N/A   Mostly Cloudy
5:00 AM 82.4 °F 92.4 °F 78.8 °F 89% 29.65 in 6.2 mi North 6.9 mph - N/A   Mostly Cloudy
5:30 AM 82.4 °F 92.4 °F 78.8 °F 89% 29.68 in 6.2 mi NNW 6.9 mph - N/A   Scattered Clouds
6:00 AM 82 °F - 78 °F 85% 29.70 in - NW 5.8 mph - -  
6:00 AM 82.4 °F 92.4 °F 78.8 °F 89% 29.68 in 6.2 mi NW 5.8 mph - N/A   Scattered Clouds
6:30 AM 82.4 °F 90.9 °F 77.0 °F 84% 29.68 in 6.2 mi North 4.6 mph - N/A   Partly Cloudy
7:00 AM 84 °F - 76 °F 71% 29.72 in - North 5.8 mph - -  
7:00 AM 84.2 °F 94.1 °F 77.0 °F 79% 29.71 in 6.2 mi North 5.8 mph - N/A   Partly Cloudy
7:30 AM 86.0 °F 96.9 °F 77.0 °F 74% 29.71 in 6.2 mi North 9.2 mph - N/A   Partly Cloudy
8:00 AM 86.0 °F 99.3 °F 78.8 °F 79% 29.71 in 6.2 mi North 10.4 mph - N/A   Partly Cloudy
8:30 AM 87.8 °F 102.5 °F 78.8 °F 75% 29.71 in 6.2 mi North 10.4 mph - N/A   Partly Cloudy
9:00 AM 88 °F - 78 °F 65% 29.73 in 16 mi NNE 10.4 mph - -   Partly Cloudy
9:00 AM 87.8 °F 102.5 °F 78.8 °F 75% 29.71 in 6.2 mi NNE 10.4 mph - N/A   Partly Cloudy
9:30 AM 87.8 °F 99.7 °F 77.0 °F 70% 29.71 in 6.2 mi NNE 10.4 mph - N/A   Partly Cloudy
10:00 AM 89 °F - 79 °F 65% 29.73 in - NNE 10.4 mph - -  
10:00 AM 89.6 °F 104.7 °F 78.8 °F 70% 29.71 in 6.2 mi NNE 10.4 mph - N/A   Partly Cloudy
10:30 AM 89.6 °F 104.7 °F 78.8 °F 70% 29.71 in 6.2 mi NNE 11.5 mph - N/A   Partly Cloudy
11:00 AM 87.8 °F 102.5 °F 78.8 °F 75% 29.71 in 6.2 mi NE 10.4 mph - N/A   Scattered Clouds
11:30 AM 89.6 °F 104.7 °F 78.8 °F 70% 29.68 in 6.2 mi NE 10.4 mph - N/A   Scattered Clouds
12:00 PM 90 °F - 78 °F 61% 29.69 in - NNE 10.4 mph - -  
12:00 PM 89.6 °F 104.7 °F 78.8 °F 70% 29.68 in 6.2 mi NNE 10.4 mph - N/A   Scattered Clouds
12:30 PM 89.6 °F 104.7 °F 78.8 °F 70% 29.68 in 6.2 mi NNE 11.5 mph - N/A   Scattered Clouds
1:00 PM 89 °F - 78 °F 63% 29.68 in - NNE 12.7 mph - -  
1:00 PM 89.6 °F 104.7 °F 78.8 °F 70% 29.68 in 6.2 mi NNE 12.7 mph - N/A   Scattered Clouds
1:30 PM 87.8 °F 99.7 °F 77.0 °F 70% 29.65 in 6.2 mi NNE 11.5 mph - N/A   Scattered Clouds
2:00 PM 89.6 °F 102.2 °F 77.0 °F 66% 29.65 in 6.2 mi NNE 11.5 mph - N/A   Partly Cloudy
2:30 PM 89.6 °F 102.2 °F 77.0 °F 66% 29.65 in 6.2 mi NE 11.5 mph - N/A   Scattered Clouds
3:00 PM 88 °F - 77 °F 62% 29.65 in 16 mi NNE 10.4 mph - -   Partly Cloudy
3:00 PM 87.8 °F 99.7 °F 77.0 °F 70% 29.65 in 6.2 mi NNE 10.4 mph - N/A   Scattered Clouds
3:30 PM 87.8 °F 102.5 °F 78.8 °F 75% 29.62 in 6.2 mi NNE 9.2 mph - N/A   Mostly Cloudy
4:00 PM 87 °F - 78 °F 68% 29.65 in - NNE 9.2 mph - -  
4:00 PM 86.0 °F 99.3 °F 78.8 °F 79% 29.62 in 6.2 mi NNE 9.2 mph - N/A   Mostly Cloudy
4:30 PM 86.0 °F 99.3 °F 78.8 °F 79% 29.65 in 6.2 mi North 8.1 mph - N/A   Mostly Cloudy
5:00 PM 86.0 °F 99.3 °F 78.8 °F 79% 29.65 in 6.2 mi NNE 6.9 mph - N/A   Mostly Cloudy
5:30 PM 86.0 °F 99.3 °F 78.8 °F 79% 29.65 in 6.2 mi NE 8.1 mph - N/A   Mostly Cloudy
6:00 PM 85 °F - 79 °F 76% 29.69 in - NNE 8.1 mph - -   Overcast
6:00 PM 84.2 °F 96.1 °F 78.8 °F 84% 29.68 in 6.2 mi NNE 8.1 mph - N/A   Mostly Cloudy
6:30 PM 84.2 °F 96.1 °F 78.8 °F 84% 29.68 in 6.2 mi NNE 9.2 mph - N/A   Mostly Cloudy
7:00 PM 85 °F - 78 °F 76% 29.71 in - NNE 8.1 mph - -  
7:00 PM 84.2 °F 96.1 °F 78.8 °F 84% 29.68 in 6.2 mi NNE 8.1 mph - N/A   Mostly Cloudy
7:30 PM 84.2 °F 96.1 °F 78.8 °F 84% 29.68 in 6.2 mi NNE 9.2 mph - N/A   Mostly Cloudy
8:01 PM 84.2 °F 96.1 °F 78.8 °F 84% 29.71 in 6.2 mi NE 8.1 mph - N/A   Mostly Cloudy
8:30 PM 84.2 °F 96.1 °F 78.8 °F 84% 29.74 in 6.2 mi NNE 6.9 mph - N/A   Scattered Clouds
9:00 PM 84 °F - 78 °F 78% 29.75 in - North 6.9 mph - -   Overcast
9:00 PM 84.2 °F 96.1 °F 78.8 °F 84% 29.74 in 6.2 mi North 6.9 mph - N/A   Scattered Clouds
9:30 PM 84.2 °F 96.1 °F 78.8 °F 84% 29.74 in 6.2 mi North 5.8 mph - N/A   Scattered Clouds
10:00 PM 84 °F - 78 °F 78% 29.76 in - NNE 5.8 mph - -  
10:00 PM 84.2 °F 96.1 °F 78.8 °F 84% 29.74 in 6.2 mi NNE 5.8 mph - N/A   Mostly Cloudy
10:30 PM 84.2 °F 96.1 °F 78.8 °F 84% 29.77 in 6.2 mi NNE 6.9 mph - N/A   Mostly Cloudy
11:00 PM 84.2 °F 96.1 °F 78.8 °F 84% 29.77 in 6.2 mi NNE 6.9 mph - N/A   Scattered Clouds
11:30 PM 84.2 °F 96.1 °F 78.8 °F 84% 29.74 in 6.2 mi North 6.9 mph - N/A   Mostly Cloudy